Weather History for KAXA - April, 2013

Change the Weather History Date:

Tuesday, April 30, 2013

  Actual Average Record
Temperature  
Mean Temperature 61 °F -  
Max Temperature 69 °F 63 °F 89 °F (2007)
Min Temperature 51 °F 43 °F 28 °F (2005)
Degree Days  
Heating Degree Days 4    
Growing Degree Days 11 (Base 50)    
Moisture  
Dew Point 51 °F    
Average Humidity 64    
Maximum Humidity 88    
Minimum Humidity 35    
Precipitation  
Precipitation 0.26 in - - ()
Sea Level Pressure  
Sea Level Pressure 29.67 in    
Wind  
Wind Speed 15 mph (NNW)    
Max Wind Speed 22 mph    
Max Gust Speed 30 mph    
Visibility 10 miles    
Events Rain    
Averages and records for this station are not official NWS values.
T = Trace of Precipitation, MM = Missing Value Source: NWS Daily Summary

Daily Weather History Graph

Daily Weather History Graph

Search for Another Location

Airport or City:

Trip Planner

Search our weather history database for the weather conditions in past years. The results will help you decide how hot, cold, wet, or windy it might be!

Date:

Astronomy

Apr. 30, 2013 Rise Set
Actual Time 6:11 AM CDT 8:17 PM CDT
Civil Twilight 5:40 AM CDT 8:48 PM CDT
Nautical Twilight 5:02 AM CDT 9:26 PM CDT
Astronomical Twilight 4:21 AM CDT 10:08 PM CDT
Moon 12:43 AM CDT (4/30) 10:40 AM CDT (4/30)
Length of Visible Light 15h 07m
Length of Day
14h 05m
Waning Gibbous, 70% of the Moon is Illuminated
Apr 30
Waning Gibbous
May 2
Last Quarter
May 9
New
May 17
First Quarter
May 24
Full

Hourly Weather History & Observations

Time (CDT) Temp. Dew Point Humidity Pressure Visibility Wind Dir Wind Speed Gust Speed Precip Events Conditions
12:15 AM 68.0 °F 57.2 °F 68% 29.50 in 10.0 mi SE 15.0 mph 20.7 mph N/A   Clear
12:35 AM 66.2 °F 57.2 °F 73% 29.50 in 10.0 mi SE 18.4 mph - N/A   Clear
12:55 AM 66.2 °F 59.0 °F 78% 29.50 in 10.0 mi SSE 19.6 mph 25.3 mph N/A   Clear
1:15 AM 66.2 °F 60.8 °F 83% 29.50 in 10.0 mi SSE 19.6 mph - N/A   Partly Cloudy
1:35 AM 66.2 °F 60.8 °F 83% 29.50 in 10.0 mi SSE 20.7 mph - N/A   Clear
1:55 AM 66.2 °F 60.8 °F 83% 29.50 in 10.0 mi SSE 20.7 mph 26.5 mph N/A   Clear
2:15 AM 66.2 °F 60.8 °F 83% 29.49 in 10.0 mi SSE 17.3 mph 25.3 mph N/A   Clear
2:35 AM 66.2 °F 60.8 °F 83% 29.48 in 10.0 mi SSE 18.4 mph - N/A   Clear
2:55 AM 66.2 °F 60.8 °F 83% 29.48 in 10.0 mi SSE 16.1 mph 23.0 mph N/A   Clear
3:15 AM 66.2 °F 60.8 °F 83% 29.47 in 10.0 mi SSE 15.0 mph - N/A   Clear
3:35 AM 64.4 °F 60.8 °F 88% 29.47 in 10.0 mi SSE 16.1 mph - N/A   Clear
3:55 AM 64.4 °F 60.8 °F 88% 29.47 in 10.0 mi South 15.0 mph - N/A   Clear
4:15 AM 64.4 °F 60.8 °F 88% 29.47 in 10.0 mi South 16.1 mph - N/A   Clear
4:35 AM 64.4 °F 59.0 °F 83% 29.47 in 10.0 mi South 15.0 mph - N/A   Clear
4:55 AM 64.4 °F 59.0 °F 83% 29.48 in 10.0 mi South 15.0 mph - N/A   Clear
5:15 AM 64.4 °F 57.2 °F 77% 29.48 in 10.0 mi South 13.8 mph - N/A   Clear
5:35 AM 64.4 °F 57.2 °F 77% 29.49 in 10.0 mi SSW 13.8 mph - N/A   Clear
5:55 AM 66.2 °F 57.2 °F 73% 29.49 in 10.0 mi SSW 17.3 mph - N/A   Clear
6:15 AM 66.2 °F 57.2 °F 73% 29.49 in 10.0 mi SSW 18.4 mph - N/A   Clear
6:35 AM 66.2 °F 55.4 °F 68% 29.51 in 10.0 mi SSW 16.1 mph 23.0 mph N/A   Clear
6:55 AM 66.2 °F 55.4 °F 68% 29.52 in 10.0 mi SW 17.3 mph - N/A   Partly Cloudy
7:15 AM 66.2 °F 55.4 °F 68% 29.52 in 10.0 mi SSW 16.1 mph - N/A   Clear
7:35 AM 66.2 °F 55.4 °F 68% 29.53 in 10.0 mi SSW 19.6 mph 29.9 mph N/A   Clear
7:55 AM 66.2 °F 55.4 °F 68% 29.54 in 10.0 mi SW 17.3 mph - N/A   Clear
8:15 AM 68.0 °F 55.4 °F 64% 29.55 in 10.0 mi SW 19.6 mph 26.5 mph N/A   Clear
8:35 AM 69.8 °F 55.4 °F 60% 29.56 in 10.0 mi SW 21.9 mph 29.9 mph N/A   Clear
8:55 AM 69.8 °F 55.4 °F 60% 29.57 in 9.0 mi WSW 21.9 mph 29.9 mph N/A   Clear
9:15 AM 69.8 °F 55.4 °F 60% 29.59 in 10.0 mi WSW 20.7 mph 28.8 mph N/A   Clear
9:35 AM 69.8 °F 57.2 °F 64% 29.60 in 10.0 mi WNW 20.7 mph - N/A   Clear
9:55 AM 69.8 °F 51.8 °F 53% 29.61 in 10.0 mi WNW 19.6 mph - N/A   Clear
10:15 AM 64.4 °F 48.2 °F 56% 29.63 in 10.0 mi NNW 16.1 mph 24.2 mph N/A   Clear
10:35 AM 64.4 °F 48.2 °F 56% 29.65 in 10.0 mi NNW 13.8 mph 23.0 mph N/A   Clear
10:55 AM 66.2 °F 46.4 °F 49% 29.66 in 10.0 mi NNW 20.7 mph - N/A   Clear
11:15 AM 66.2 °F 46.4 °F 49% 29.66 in 10.0 mi NNW 19.6 mph - N/A   Clear
11:35 AM 66.2 °F 44.6 °F 46% 29.68 in 10.0 mi North 16.1 mph 23.0 mph N/A   Clear
11:55 AM 66.2 °F 44.6 °F 46% 29.70 in 10.0 mi NNW 13.8 mph 20.7 mph N/A   Clear
12:15 PM 66.2 °F 46.4 °F 49% 29.70 in 10.0 mi NNW 16.1 mph 24.2 mph N/A   Clear
12:35 PM 66.2 °F 46.4 °F 49% 29.71 in 10.0 mi North 11.5 mph 19.6 mph N/A   Clear
12:55 PM 66.2 °F 46.4 °F 49% 29.71 in 10.0 mi NNW 11.5 mph 17.3 mph N/A   Clear
1:15 PM 68.0 °F 46.4 °F 46% 29.71 in 10.0 mi NNW 9.2 mph - N/A   Clear
1:35 PM 68.0 °F 46.4 °F 46% 29.73 in 10.0 mi Variable 6.9 mph 15.0 mph N/A   Clear
1:55 PM 68.0 °F 46.4 °F 46% 29.74 in 10.0 mi NNW 10.4 mph - N/A   Clear
2:15 PM 68.0 °F 44.6 °F 43% 29.75 in 10.0 mi NW 10.4 mph - N/A   Clear
2:35 PM 68.0 °F 44.6 °F 43% 29.75 in 10.0 mi Variable 5.8 mph 13.8 mph N/A   Clear
2:55 PM 68.0 °F 44.6 °F 43% 29.76 in 10.0 mi North 10.4 mph - N/A   Clear
3:15 PM 68.0 °F 44.6 °F 43% 29.77 in 10.0 mi NNW 8.1 mph - N/A   Clear
3:35 PM 68.0 °F 44.6 °F 43% 29.76 in 9.0 mi Variable 4.6 mph 12.7 mph N/A   Clear
3:55 PM 68.0 °F 42.8 °F 40% 29.77 in 10.0 mi NNW 9.2 mph - N/A   Clear
4:15 PM 69.8 °F 41.0 °F 35% 29.77 in 10.0 mi NNW 9.2 mph 17.3 mph N/A   Clear
4:35 PM 69.8 °F 42.8 °F 38% 29.78 in 10.0 mi NW 13.8 mph 19.6 mph N/A   Clear
4:55 PM 69.8 °F 42.8 °F 38% 29.78 in 10.0 mi North 13.8 mph 23.0 mph N/A   Clear
5:15 PM 68.0 °F 41.0 °F 37% 29.78 in 10.0 mi North 13.8 mph 20.7 mph N/A   Mostly Cloudy
5:35 PM 68.0 °F 41.0 °F 37% 29.77 in 10.0 mi North 12.7 mph 18.4 mph N/A   Overcast
5:55 PM 64.4 °F 44.6 °F 49% 29.79 in 3.0 mi North 10.4 mph 17.3 mph N/A   Light Drizzle
6:15 PM 64.4 °F 44.6 °F 49% 29.80 in 10.0 mi North 12.7 mph - N/A   Overcast
6:35 PM 57.2 °F 48.2 °F 72% 29.81 in - NNE 13.8 mph 19.6 mph N/A Rain Heavy Rain
6:55 PM 57.2 °F 48.2 °F 72% 29.82 in 10.0 mi ENE 5.8 mph - 0.11 in   Overcast
7:15 PM 57.2 °F 50.0 °F 77% 29.82 in 9.0 mi NE 6.9 mph - N/A Rain Light Rain
7:35 PM 59.0 °F 50.0 °F 72% 29.83 in 10.0 mi NNE 8.1 mph - N/A   Light Drizzle
7:55 PM 57.2 °F 46.4 °F 67% 29.84 in 2.0 mi NE 10.4 mph - 0.12 in Rain Light Rain
8:15 PM 57.2 °F 48.2 °F 72% 29.85 in 10.0 mi ENE 5.8 mph - N/A   Overcast
8:35 PM 57.2 °F 50.0 °F 77% 29.86 in 10.0 mi ENE 6.9 mph - N/A   Overcast
9:15 PM 55.4 °F 50.0 °F 82% 29.88 in 10.0 mi East 4.6 mph - N/A   Overcast
9:35 PM 55.4 °F 50.0 °F 82% 29.91 in 10.0 mi ENE 4.6 mph - N/A Rain Rain
9:55 PM 55.4 °F 50.0 °F 82% 29.92 in 10.0 mi ENE 5.8 mph - 0.01 in   Overcast
10:15 PM 55.4 °F 50.0 °F 82% 29.92 in 10.0 mi North 9.2 mph - N/A Rain Light Rain
10:35 PM 55.4 °F 44.6 °F 67% 29.91 in 10.0 mi North 11.5 mph - N/A   Overcast
10:55 PM 55.4 °F 42.8 °F 63% 29.94 in 10.0 mi North 12.7 mph 18.4 mph N/A   Overcast
11:15 PM 55.4 °F 42.8 °F 63% 29.92 in 10.0 mi NE 15.0 mph - N/A   Overcast
11:35 PM 53.6 °F 44.6 °F 72% 29.95 in 7.0 mi North 11.5 mph - N/A Rain Light Rain
11:55 PM 51.8 °F 44.6 °F 76% 29.95 in 8.0 mi NNE 13.8 mph - 0.02 in Rain Light Rain